Location: Dimsdale
(55.1333°N, 118.9833°W)
Time: 13:55:42
(UTC+00:00)

PCSat - Pass Details

Date: 07 December 2023
Orbit: 784 x 792 km, 67.0° (Epoch: 04 March)

Event Time Altitude Azimuth Distance (km) Brightness Sun altitude
Exits shadow 11:27:32 25° 75° (ENE) 1,537 11.5 -38.1°
Drops below altitude 10° 11:30:17 10° 53° (NE) 2,360 12.7 -37.8°
Sets 11:32:52 0° 45° (NE) 3,295 13.5 -37.4°
